When you browse on this site, cookies collect data to enhance your experience and personalize the content and advertising you see.
Visit our Privacy Policy to learn more. By continuing to use the site, you agree to this use of cookies and data.
  • In Hungary
  • List of Countries
  • For 7 days
  • Water Temperature
  • Weather Map
  • News
  • Weather Widgets
  • user-avatar
    Login

    Hourly Weather Kashirino

    Today, 21 January, Tuesday

    Time Temperature Precipitation Wind Pressure Humidity
    00:00 -2°C° 0.1 mm 4 mps 756 mmHg 94%
    01:00 -2°C° 0 mm 4 mps 755 mmHg 94%
    02:00 -2°C° 0 mm 4 mps 755 mmHg 95%
    03:00 -2°C° 0 mm 4 mps 754 mmHg 95%
    04:00 -2°C° 0.1 mm 4 mps 754 mmHg 95%
    05:00 -2°C° 0.1 mm 4 mps 753 mmHg 95%
    06:00 -2°C° 0.1 mm 4 mps 753 mmHg 94%
    07:00 -2°C° 0.1 mm 4 mps 752 mmHg 94%
    08:00 -2°C° 0.1 mm 5 mps 751 mmHg 95%
    09:00 -4°C° 0 mm 5 mps 750 mmHg 95%
    10:00 -2°C° 0.4 mm 5 mps 750 mmHg 94%
    11:00 -2°C° 0.4 mm 5 mps 749 mmHg 94%
    12:00 -3°C° 0.4 mm 6 mps 748 mmHg 93%
    13:00 -2°C° 0.4 mm 6 mps 747 mmHg 95%
    14:00 -2°C° 0.4 mm 6 mps 747 mmHg 96%
    15:00 -1°C° 0 mm 5 mps 746 mmHg 96%
    16:00 -1°C° 0.4 mm 5 mps 745 mmHg 97%
    17:00 -1°C° 0.4 mm 5 mps 744 mmHg 97%
    18:00 -2°C° 0.4 mm 6 mps 743 mmHg 97%
    19:00 -2°C° 0.5 mm 6 mps 742 mmHg 97%
    20:00 -1°C° 0.5 mm 6 mps 741 mmHg 97%
    21:00 -1°C° 0.5 mm 6 mps 741 mmHg 97%
    22:00 -1°C° 0.8 mm 6 mps 740 mmHg 97%
    23:00 -1°C° 0.8 mm 6 mps 739 mmHg 97%

    Tomorrow, 22 January, Wednesday

    Time Temperature Precipitation Wind Pressure Humidity
    00:00 -1°C° 0.8 mm 6 mps 738 mmHg 97%
    01:00 -1°C° 0.5 mm 6 mps 738 mmHg 96%
    02:00 0°C° 0.5 mm 7 mps 738 mmHg 94%
    03:00 0°C° 0.5 mm 7 mps 738 mmHg 92%
    04:00 -1°C° 0.1 mm 7 mps 738 mmHg 90%
    05:00 -1°C° 0.1 mm 6 mps 738 mmHg 88%
    06:00 -2°C° 0.1 mm 6 mps 738 mmHg 85%
    07:00 -3°C° 0 mm 6 mps 738 mmHg 85%
    08:00 -3°C° 0 mm 6 mps 739 mmHg 85%
    09:00 -4°C° 0 mm 5 mps 739 mmHg 85%
    10:00 -4°C° 0 mm 6 mps 738 mmHg 85%
    11:00 -3°C° 0 mm 6 mps 738 mmHg 85%
    12:00 -3°C° 0 mm 6 mps 738 mmHg 85%
    13:00 -2°C° 0.1 mm 5 mps 738 mmHg 84%
    14:00 -2°C° 0.1 mm 5 mps 737 mmHg 83%
    15:00 -2°C° 0.1 mm 4 mps 737 mmHg 83%
    16:00 -2°C° 0.1 mm 4 mps 737 mmHg 87%
    17:00 -3°C° 0.1 mm 4 mps 736 mmHg 91%
    18:00 -3°C° 0.1 mm 4 mps 736 mmHg 95%
    19:00 -3°C° 0.3 mm 4 mps 736 mmHg 92%
    20:00 -3°C° 0.3 mm 4 mps 736 mmHg 89%
    21:00 -3°C° 0.3 mm 4 mps 736 mmHg 87%
    22:00 -3°C° 0 mm 4 mps 736 mmHg 87%
    23:00 -4°C° 0 mm 4 mps 736 mmHg 87%

    Day after tomorrow, 23 January, Thursday

    Time Temperature Precipitation Wind Pressure Humidity
    00:00 -4°C° 0 mm 4 mps 736 mmHg 87%
    01:00 -4°C° 0 mm 4 mps 737 mmHg 88%
    02:00 -5°C° 0 mm 4 mps 737 mmHg 88%
    03:00 -5°C° 0 mm 4 mps 738 mmHg 88%
    04:00 -5°C° 0 mm 4 mps 738 mmHg 88%
    05:00 -5°C° 0 mm 4 mps 738 mmHg 88%
    06:00 -7°C° 0 mm 4 mps 738 mmHg 89%
    07:00 -7°C° 0 mm 4 mps 739 mmHg 87%
    08:00 -7°C° 0 mm 4 mps 739 mmHg 86%
    09:00 -7°C° 0 mm 4 mps 740 mmHg 85%
    10:00 -7°C° 0.1 mm 5 mps 740 mmHg 81%
    11:00 -6°C° 0.1 mm 5 mps 741 mmHg 78%
    12:00 -6°C° 0.1 mm 6 mps 741 mmHg 74%
    13:00 -6°C° 0 mm 5 mps 742 mmHg 72%
    14:00 -7°C° 0 mm 5 mps 743 mmHg 71%
    15:00 -7°C° 0 mm 4 mps 743 mmHg 70%
    16:00 -8°C° 0 mm 5 mps 744 mmHg 72%
    17:00 -8°C° 0 mm 5 mps 745 mmHg 75%
    18:00 -10°C° 0 mm 5 mps 746 mmHg 77%
    19:00 -9°C° 0 mm 4 mps 746 mmHg 77%
    20:00 -10°C° 0 mm 4 mps 747 mmHg 76%
    21:00 -10°C° 0 mm 4 mps 747 mmHg 76%
    22:00 -10°C° 0 mm 4 mps 748 mmHg 77%
    23:00 -9°C° 0 mm 3 mps 749 mmHg 79%

    24 January, Friday

    Time Temperature Precipitation Wind Pressure Humidity
    00:00 -9°C° 0 mm 3 mps 749 mmHg 81%
    01:00 -10°C° 0 mm 3 mps 749 mmHg 83%
    02:00 -10°C° 0 mm 3 mps 750 mmHg 84%
    03:00 -10°C° 0 mm 3 mps 750 mmHg 85%
    04:00 -10°C° 0 mm 3 mps 750 mmHg 85%
    05:00 -10°C° 0 mm 3 mps 751 mmHg 85%
    06:00 -10°C° 0 mm 3 mps 751 mmHg 85%
    07:00 -10°C° 0 mm 3 mps 751 mmHg 85%
    08:00 -10°C° 0 mm 3 mps 751 mmHg 85%
    09:00 -10°C° 0 mm 3 mps 751 mmHg 85%
    10:00 -10°C° 0 mm 4 mps 750 mmHg 83%
    11:00 -9°C° 0 mm 4 mps 750 mmHg 82%
    12:00 -8°C° 0 mm 5 mps 750 mmHg 80%
    13:00 -8°C° 0 mm 5 mps 749 mmHg 83%
    14:00 -8°C° 0 mm 5 mps 748 mmHg 86%
    15:00 -7°C° 0 mm 5 mps 748 mmHg 89%
    16:00 -7°C° 0.3 mm 5 mps 747 mmHg 90%
    17:00 -6°C° 0.3 mm 6 mps 747 mmHg 92%
    18:00 -6°C° 0.3 mm 6 mps 746 mmHg 93%
    19:00 -5°C° 0.1 mm 6 mps 746 mmHg 93%
    20:00 -5°C° 0.1 mm 5 mps 746 mmHg 93%
    21:00 -4°C° 0.1 mm 5 mps 746 mmHg 93%
    22:00 -4°C° 0.3 mm 5 mps 745 mmHg 94%
    23:00 -4°C° 0.3 mm 5 mps 745 mmHg 96%

    25 January, Saturday

    Time Temperature Precipitation Wind Pressure Humidity
    00:00 -2°C° 0.3 mm 5 mps 745 mmHg 97%
    01:00 -2°C° 0.4 mm 5 mps 744 mmHg 97%
    02:00 -1°C° 0.4 mm 5 mps 744 mmHg 97%
    03:00 0°C° 0.4 mm 4 mps 744 mmHg 97%
    04:00 0°C° 0.3 mm 4 mps 744 mmHg 97%
    05:00 0°C° 0.3 mm 4 mps 744 mmHg 97%
    06:00 0°C° 0.3 mm 4 mps 744 mmHg 97%
    07:00 0°C° 0.1 mm 4 mps 744 mmHg 97%
    08:00 0°C° 0.1 mm 4 mps 744 mmHg 97%
    09:00 +1°C° 0.1 mm 3 mps 744 mmHg 97%
    10:00 +1°C° 0 mm 3 mps 744 mmHg 98%
    11:00 +1°C° 0 mm 3 mps 744 mmHg 98%
    12:00 +1°C° 0 mm 3 mps 744 mmHg 98%
    13:00 0°C° 0.2 mm 4 mps 744 mmHg 98%
    14:00 0°C° 0.2 mm 4 mps 744 mmHg 97%
    15:00 0°C° 0.2 mm 5 mps 743 mmHg 96%
    16:00 0°C° 0.1 mm 5 mps 743 mmHg 96%
    17:00 0°C° 0.1 mm 5 mps 743 mmHg 95%
    18:00 0°C° 0.1 mm 5 mps 744 mmHg 95%
    19:00 0°C° 0 mm 5 mps 744 mmHg 94%
    20:00 0°C° 0 mm 4 mps 744 mmHg 93%
    21:00 0°C° 0 mm 4 mps 744 mmHg 92%
    22:00 -1°C° 0.1 mm 5 mps 743 mmHg 92%
    23:00 -1°C° 0.1 mm 5 mps 743 mmHg 91%

    26 January, Sunday

    Time Temperature Precipitation Wind Pressure Humidity
    00:00 -2°C° 0.1 mm 6 mps 743 mmHg 90%
    01:00 -2°C° 0 mm 6 mps 743 mmHg 87%
    02:00 -2°C° 0 mm 6 mps 743 mmHg 84%
    03:00 -2°C° 0 mm 6 mps 743 mmHg 81%
    04:00 -2°C° 0 mm 7 mps 743 mmHg 83%
    05:00 -3°C° 0 mm 7 mps 743 mmHg 85%
    06:00 -3°C° 0 mm 7 mps 743 mmHg 87%
    07:00 -3°C° 0.1 mm 7 mps 744 mmHg 84%
    08:00 -4°C° 0.1 mm 6 mps 744 mmHg 80%
    09:00 -4°C° 0.1 mm 6 mps 745 mmHg 77%
    10:00 -4°C° 0 mm 6 mps 746 mmHg 76%
    11:00 -4°C° 0 mm 6 mps 746 mmHg 74%
    12:00 -4°C° 0 mm 6 mps 747 mmHg 72%
    13:00 -4°C° 0 mm 6 mps 748 mmHg 72%
    14:00 -4°C° 0 mm 6 mps 748 mmHg 72%
    15:00 -4°C° 0 mm 5 mps 749 mmHg 71%
    16:00 -4°C° 0 mm 5 mps 749 mmHg 74%
    17:00 -5°C° 0 mm 5 mps 750 mmHg 77%
    18:00 -5°C° 0 mm 5 mps 751 mmHg 79%
    19:00 -4°C° 0 mm 4 mps 752 mmHg 80%
    20:00 -5°C° 0 mm 4 mps 753 mmHg 81%
    21:00 -5°C° 0 mm 4 mps 753 mmHg 81%
    22:00 -5°C° 0 mm 4 mps 754 mmHg 83%
    23:00 -5°C° 0 mm 3 mps 754 mmHg 84%
    Show more